LEMUR-2-SUSURRUS

Last updated on Thu Oct 29 2020 00:02:02 GMT+0000 (Coordinated Universal Time)

1 46502U 20068S 20302.39084944 .00000703 00000-0 58063-4 0 9997 2 46502 97.6665 235.5453 0012126 144.6327 215.5702 15.02072999 4419
UTC large
Height (km)
Speed (km/s)
/
Latitude / Longitude
Inclination (degrees)
Orbital Period (minutes)
Azimuth
Elevation
Range (km)
Doppler Factor

Next 0 passes for location: London (51.5072 / 0.1276)

Sorry there are no passes over London.